TimeGMT,TemperatureF,Dew PointF,Humidity,Sea Level PressureIn,VisibilityMPH,Wind Direction,Wind SpeedMPH,Gust SpeedMPH,PrecipitationIn,Events,Conditions,WindDirDegrees,DateUTC
2:50 AM,42,39,84,,,South,11.5,,,,,170,2012-11-03 02:50:00
5:50 AM,38,36,88,,,SE,11.5,,,,,140,2012-11-03 05:50:00
6:20 AM,37.4,37.4,100,29.24,-9999.0,SSE,11.5,-,N/A,,Clear,150,2012-11-03 06:20:00
6:50 AM,39.2,37.4,93,29.24,6.2,SSE,11.5,-,N/A,,Scattered Clouds,160,2012-11-03 06:50:00
7:50 AM,39.2,37.4,93,29.27,6.2,SSE,10.4,-,N/A,,Scattered Clouds,160,2012-11-03 07:50:00
8:20 AM,39.2,37.4,93,29.27,3.7,Variable,5.8,-,N/A,Rain,Rain Showers,0,2012-11-03 08:20:00
8:50 AM,38,36,90,,,East,4.6,,,,,80,2012-11-03 08:50:00
8:50 AM,37.4,37.4,100,29.27,3.7,Variable,2.3,-,N/A,Rain,Rain Showers,0,2012-11-03 08:50:00
9:20 AM,39.2,39.2,100,29.27,4.3,SE,4.6,-,N/A,Rain,Light Rain Showers,130,2012-11-03 09:20:00
9:50 AM,39.2,39.2,100,29.27,6.2,SE,8.1,-,N/A,Rain,Light Rain Showers,140,2012-11-03 09:50:00
10:20 AM,41.0,41.0,100,29.27,6.2,West,17.3,-,N/A,,Scattered Clouds,280,2012-11-03 10:20:00
10:50 AM,46.4,37.4,71,29.30,6.2,West,17.3,-,N/A,,Scattered Clouds,280,2012-11-03 10:50:00
11:20 AM,46.4,37.4,71,29.30,6.2,West,18.4,-,N/A,,Scattered Clouds,270,2012-11-03 11:20:00
11:50 AM,46,34,52,,,West,18.4,,,,,270,2012-11-03 11:50:00
11:50 AM,46.4,35.6,66,29.30,6.2,West,18.4,-,N/A,,Scattered Clouds,270,2012-11-03 11:50:00
12:20 PM,48.2,35.6,62,29.30,6.2,West,16.1,-,N/A,,Scattered Clouds,270,2012-11-03 12:20:00
12:50 PM,48.2,37.4,66,29.30,6.2,WSW,18.4,-,N/A,,Scattered Clouds,250,2012-11-03 12:50:00
1:20 PM,46.4,35.6,66,29.30,6.2,West,17.3,-,N/A,Rain,Light Rain Showers,260,2012-11-03 13:20:00
1:50 PM,48.2,39.2,71,29.30,6.2,WSW,19.6,-,N/A,,Scattered Clouds,240,2012-11-03 13:50:00
2:20 PM,48.2,35.6,62,29.30,6.2,WSW,19.6,-,N/A,,Partly Cloudy,250,2012-11-03 14:20:00
2:50 PM,47,34,49,,,SW,20.7,,,,,230,2012-11-03 14:50:00
2:50 PM,46.4,37.4,71,29.33,6.2,WSW,18.4,-,N/A,,Partly Cloudy,240,2012-11-03 14:50:00
3:20 PM,46.4,35.6,66,29.33,6.2,WSW,17.3,-,N/A,,Scattered Clouds,240,2012-11-03 15:20:00
3:50 PM,46.4,35.6,66,29.33,6.2,SW,21.9,-,N/A,,Scattered Clouds,220,2012-11-03 15:50:00
4:20 PM,42.8,35.6,76,29.33,6.2,SW,16.1,-,N/A,,Scattered Clouds,220,2012-11-03 16:20:00
4:50 PM,42.8,37.4,81,29.36,6.2,SSW,13.8,-,N/A,Rain,Light Rain Showers,210,2012-11-03 16:50:00
5:20 PM,42.8,35.6,76,29.36,6.2,SW,10.4,21.9,N/A,Rain,Light Rain Showers,220,2012-11-03 17:20:00
5:50 PM,41,36,77,,,South,11.5,,,,,170,2012-11-03 17:50:00
5:50 PM,41.0,37.4,87,29.36,6.2,South,12.7,-,N/A,Rain,Light Rain Showers,180,2012-11-03 17:50:00
6:50 PM,41.0,37.4,87,29.36,6.2,South,16.1,-,N/A,,Mostly Cloudy,180,2012-11-03 18:50:00
7:20 PM,41.0,37.4,87,29.36,6.2,South,20.7,-,N/A,,Mostly Cloudy,180,2012-11-03 19:20:00
7:50 PM,39.2,37.4,93,29.36,6.2,South,17.3,-,N/A,,Mostly Cloudy,170,2012-11-03 19:50:00
8:20 PM,39.2,37.4,93,29.36,6.2,SSE,15.0,-,N/A,,Mostly Cloudy,160,2012-11-03 20:20:00
8:50 PM,38,35,85,,,SSE,13.8,,,,,160,2012-11-03 20:50:00
9:20 PM,37.4,35.6,93,29.36,6.2,SSE,13.8,-,N/A,,Scattered Clouds,160,2012-11-03 21:20:00
11:50 PM,38,35,85,,,SSE,15.0,,,,,150,2012-11-03 23:50:00